EW6426 Weather Reports


time (UTC)temp
F
wind
direction
speed
knots
gust
knots
rain 1hr
in
rain 24hr
in
rain mn
in
humidity
%
barometer
mb
20260906204600 73 213 0.0 0.0 0.00 0.00 0.00 82 1009.3
20260906203042 72 184 0.0 0.0 0.00 0.00 0.00 82 1009.0
20260906201557 72 315 0.0 0.0 0.00 0.00 0.00 80 1009.0
20260906200039 70 316 0.0 0.0 0.00 0.00 0.00 84 1009.3
20260906194538 68 315 0.0 0.0 0.00 0.00 0.00 88 1010.2
20260906193037 68 323 0.0 0.0 0.00 0.00 0.00 90 1011.2
20260906191536 68 334 0.0 0.0 0.00 0.00 0.00 92 1011.7
20260906190035 68 331 0.0 0.0 0.00 0.00 0.00 91 1011.7
20260906184534 68 318 0.0 0.0 0.00 0.00 0.00 92 1011.7
20260906183035 67 290 0.0 0.0 0.00 0.00 0.00 93 1012.2
20260906181534 67 292 0.0 0.0 0.00 0.00 0.00 94 1012.6
20260906180036 67 296 0.0 0.0 0.00 0.00 0.00 93 1011.6
20260906174530 68 257 0.0 0.0 0.00 0.00 0.00 91 1011.6
20260906173028 72 234 0.0 0.0 0.00 0.00 0.00 91 1012.1
20260906171525 73 248 0.0 0.0 0.00 0.00 0.00 92 1011.6
20260906170023 74 217 0.0 0.0 0.00 0.00 0.00 92 1011.0
20260906164522 74 215 0.0 0.0 0.00 0.00 0.00 92 1011.3
20260906163019 74 183 0.0 0.0 0.00 0.00 0.00 92 1011.4
20260906161523 74 217 0.0 0.0 0.00 0.00 0.00 92 1011.5
20260906160018 74 240 0.0 0.0 0.00 0.00 0.00 91 1011.2
20260906154530 73 165 0.0 0.0 0.00 0.00 0.00 91 1011.3
20260906153016 74 226 0.0 0.0 0.00 0.00 0.00 90 1010.9
20260906151511 74 216 0.0 0.0 0.00 0.00 0.00 91 1010.6
20260906150009 73 207 0.0 0.0 0.00 0.00 0.00 91 1010.6
20260906144513 73 141 0.0 0.0 0.00 0.00 0.00 92 1010.0
20260906143000 72 184 0.0 0.0 0.00 0.00 0.00 92 1010.0
20260906141602 71 159 0.0 0.0 0.00 0.00 0.00 92 1009.9
20260906140100 71 263 0.0 0.0 0.00 0.00 0.00 93 1010.6
20260906134558 71 110 0.0 0.0 0.00 0.00 0.00 93 1009.7
20260906133100 70 76 0.0 0.0 0.00 0.00 0.00 93 1009.6
20260906131601 70 117 0.0 0.0 0.00 0.00 0.00 93 1010.1
20260906130058 70 78 0.0 0.0 0.00 0.00 0.00 94 1010.5
20260906124555 70 86 0.0 0.0 0.00 0.00 0.00 92 1010.2
20260906123100 70 130 0.0 0.0 0.00 0.00 0.00 92 1010.5
20260906121553 70 149 0.0 0.0 0.00 0.00 0.00 93 1010.6
20260906120116 70 143 0.0 0.0 0.00 0.00 0.00 93 1010.9
20260906114602 70 205 0.0 0.0 0.00 0.00 0.00 93 1011.0
20260906113049 70 262 0.0 0.0 0.00 0.00 0.00 93 1010.5
20260906111552 70 49 0.0 0.0 0.00 0.00 0.00 93 1010.0
20260906110148 69 88 0.0 0.0 0.00 0.00 0.00 93 1009.6
20260906104547 69 77 0.0 0.0 0.00 0.00 0.00 92 1009.7
20260906103050 70 147 0.0 0.0 0.00 0.00 0.00 92 1010.0
20260906101545 70 159 0.0 0.0 0.00 0.00 0.00 92 1010.1
20260906100056 70 173 0.0 0.0 0.00 0.00 0.00 92 1009.8
20260906094550 69 176 0.0 0.0 0.00 0.00 0.00 92 1009.7
20260906093042 69 123 0.0 0.0 0.00 0.00 0.00 92 1009.9
20260906091542 69 152 0.0 0.0 0.00 0.00 0.00 91 1010.1
20260906090041 69 152 0.0 0.0 0.00 0.00 0.00 91 1010.2
20260906084541 69 139 0.0 0.0 0.00 0.00 0.00 91 1010.3
20260906083039 69 137 0.0 0.0 0.00 0.00 0.00 91 1010.2
20260906081539 69 130 0.0 0.0 0.00 0.00 0.00 90 1009.9
20260906080035 69 135 0.0 0.0 0.00 0.00 0.00 90 1009.8
20260906074537 70 132 0.0 0.0 0.00 0.00 0.00 88 1009.3
20260906073033 70 153 0.0 0.0 0.00 0.00 0.00 88 1009.3
20260906071532 70 129 0.0 0.0 0.00 0.00 0.00 88 1009.3
20260906070031 70 131 0.0 0.0 0.00 0.00 0.00 88 1009.3
20260906064529 71 130 0.0 0.0 0.00 0.00 0.00 86 1009.4
20260906063031 71 130 0.0 0.0 0.00 0.00 0.00 86 1009.4
20260906061525 71 136 0.0 0.0 0.00 0.00 0.00 87 1009.6
20260906060023 71 140 0.0 0.0 0.00 0.00 0.00 87 1009.8
20260906054537 71 142 0.0 0.0 0.00 0.00 0.00 87 1009.9
20260906053020 72 108 0.0 0.0 0.00 0.00 0.00 87 1009.7
20260906051526 72 132 0.0 0.0 0.00 0.00 0.00 87 1009.6
20260906050022 72 155 0.0 0.0 0.00 0.00 0.00 87 1009.5
20260906044514 72 134 0.0 0.0 0.00 0.00 0.00 87 1009.6
20260906043013 72 167 0.0 0.0 0.00 0.00 0.00 87 1009.6
20260906041512 72 117 0.0 0.0 0.00 0.00 0.00 88 1008.8
20260906040012 72 109 0.0 0.0 0.00 0.00 0.00 88 1008.7
20260906034512 73 116 0.0 0.0 0.00 0.00 0.00 87 1008.7
20260906033011 73 121 0.0 0.0 0.00 0.00 0.00 85 1008.5
20260906031534 75 200 0.0 0.0 0.00 0.00 0.00 81 1008.0
20260906030011 75 186 0.0 0.0 0.00 0.00 0.00 82 1007.7
20260906024533 76 201 0.0 0.0 0.00 0.00 0.00 82 1007.7
20260906023108 77 224 0.0 0.0 0.00 0.00 0.00 80 1008.2
20260906021508 77 238 0.0 0.0 0.00 0.00 0.00 81 1008.5
20260906020007 77 215 0.0 0.0 0.00 0.00 0.00 80 1008.2
20260906014515 77 180 0.0 0.0 0.00 0.00 0.00 80 1008.2
20260906013007 77 219 0.0 0.0 0.00 0.00 0.00 80 1008.4
20260906011506 77 221 0.0 0.0 0.00 0.00 0.00 79 1008.5
20260906010013 76 138 0.0 0.0 0.00 0.00 0.00 84 1009.3
20260906004505 77 252 0.0 0.0 0.00 0.00 0.00 80 1010.4
20260906003006 78 292 0.0 0.0 0.00 0.00 0.00 78 1010.5
20260906001503 79 313 0.0 0.0 0.00 0.00 0.00 74 1011.3
20260906000007 80 292 0.0 0.0 0.00 0.00 0.00 71 1011.3
20260905234606 81 187 0.0 0.0 0.00 0.00 0.00 68 1010.4
20260905233057 81 164 0.0 0.0 0.00 0.00 0.00 66 1009.9
20260905231556 82 164 0.0 0.0 0.00 0.00 0.00 65 1009.5
20260905230057 83 164 0.0 0.0 0.00 0.00 0.00 64 1009.8
20260905224553 83 164 0.0 0.0 0.00 0.00 0.00 61 1009.3
20260905223052 84 171 0.0 0.0 0.00 0.00 0.00 58 1008.8
20260905221552 85 157 0.0 0.0 0.00 0.00 0.00 55 1007.8
20260905220051 87 137 0.0 0.0 0.00 0.00 0.00 54 1007.3
20260905214552 87 141 0.0 0.0 0.00 0.00 0.00 54 1007.9
20260905213049 87 130 0.0 0.0 0.00 0.00 0.00 54 1008.2
20260905211602 87 175 0.0 0.0 0.00 0.00 0.00 54 1008.5
20260905210057 86 141 0.0 0.0 0.00 0.00 0.00 56 1008.4